Terminal Aerodrome Forecast
Issued by NWS

Home | Current Version | Previous Version | Text Only | Print | Product List | Glossary On
Versions: 1 2 3 4 5 6 7 8 9 10 11 12 13
195
FTUS46 KMTR 042340
TAFSJC
TAF
KSJC 042340Z 0500/0524 29007KT P6SM FEW050 SCT120 BKN170
     FM050300 VRB03KT P6SM FEW050 SCT120 BKN170
     FM050900 VRB03KT P6SM OVC010
     FM051600 29008KT P6SM SCT050=

USA.gov is the U.S. government's official web portal to all federal, state and local government web resources and services.